Location: Arbon
(43.0005°N, 0.7472°E)
Time: 22:52:44
(UTC+00:00)

Altair - Pass Details

Date: 05 December 2020
Orbit: 1501 x 1682 km, 47.2° (Epoch: 26 January)

Event Time Altitude Azimuth Distance (km) Brightness Sun altitude
Rises 21:49:11 0° 279° (W) 4,709 10.5 -58.0°
Reaches altitude 10° 21:52:18 10° 282° (WNW) 3,706 9.8 -58.5°
Enters shadow 21:53:45 16° 284° (WNW) 3,251 9.4 -58.7°
Maximum altitude 22:01:36 69° 6° (N) 1,596 - -59.9°
Drops below altitude 10° 22:10:44 10° 89° (E) 3,653 - -61.3°
Sets 22:13:47 0° 92° (E) 4,638 - -61.7°
